Year,Month,Day,Hour,Minute,Value (Times are PST for temperature in C)
2009,03,06,00,00,2.40
2009,03,06,00,01,2.40
2009,03,06,00,02,2.40
2009,03,06,00,03,2.30
2009,03,06,00,04,2.30
2009,03,06,00,05,2.30
2009,03,06,00,06,2.40
2009,03,06,00,07,2.40
2009,03,06,00,08,2.40
2009,03,06,00,09,2.30
2009,03,06,00,10,2.30
2009,03,06,00,11,2.30
2009,03,06,00,12,2.30
2009,03,06,00,13,2.30
2009,03,06,00,14,2.30
2009,03,06,00,15,2.30
2009,03,06,00,16,2.30
2009,03,06,00,17,2.30
2009,03,06,00,18,2.30
2009,03,06,00,19,2.20
2009,03,06,00,20,2.30
2009,03,06,00,21,2.30
2009,03,06,00,22,2.30
2009,03,06,00,23,2.20
2009,03,06,00,24,2.20
2009,03,06,00,25,2.20
2009,03,06,00,26,2.10
2009,03,06,00,27,2.10
2009,03,06,00,28,2.10
2009,03,06,00,29,2.10
2009,03,06,00,30,2.00
2009,03,06,00,31,2.00
2009,03,06,00,32,2.00
2009,03,06,00,33,2.00
2009,03,06,00,34,1.90
2009,03,06,00,35,2.00
2009,03,06,00,36,2.00
2009,03,06,00,37,2.00
2009,03,06,00,38,1.90
2009,03,06,00,39,2.00
2009,03,06,00,40,2.00
2009,03,06,00,41,2.00
2009,03,06,00,42,2.00
2009,03,06,00,43,2.00
2009,03,06,00,44,1.90
2009,03,06,00,45,1.80
2009,03,06,00,46,1.80
2009,03,06,00,47,1.80
2009,03,06,00,48,1.70
2009,03,06,00,49,1.60
2009,03,06,00,50,1.60
2009,03,06,00,51,1.50
2009,03,06,00,52,1.40
2009,03,06,00,53,1.40
2009,03,06,00,54,1.30
2009,03,06,00,55,1.30
2009,03,06,00,56,1.30
2009,03,06,00,57,1.30
2009,03,06,00,58,1.30
2009,03,06,00,59,1.30
2009,03,06,01,00,1.30
2009,03,06,01,01,1.30
2009,03,06,01,02,1.30
2009,03,06,01,03,1.30
2009,03,06,01,04,1.30
2009,03,06,01,05,1.30
2009,03,06,01,06,1.30
2009,03,06,01,07,1.30
2009,03,06,01,08,1.30
2009,03,06,01,09,1.30
2009,03,06,01,10,1.30
2009,03,06,01,11,1.30
2009,03,06,01,12,1.20
2009,03,06,01,13,1.20
2009,03,06,01,14,1.20
2009,03,06,01,15,1.20
2009,03,06,01,16,1.10
2009,03,06,01,17,1.10
2009,03,06,01,18,1.10
2009,03,06,01,19,1.00
2009,03,06,01,20,1.00
2009,03,06,01,21,0.90
2009,03,06,01,22,0.90
2009,03,06,01,23,0.90
2009,03,06,01,24,0.90
2009,03,06,01,25,0.90
2009,03,06,01,26,0.90
2009,03,06,01,27,0.90
2009,03,06,01,28,0.90
2009,03,06,01,29,1.00
2009,03,06,01,30,1.00
2009,03,06,01,31,1.00
2009,03,06,01,32,1.00
2009,03,06,01,33,1.00
2009,03,06,01,34,1.10
2009,03,06,01,35,1.10
2009,03,06,01,36,1.10
2009,03,06,01,37,1.20
2009,03,06,01,38,1.20
2009,03,06,01,39,1.20
2009,03,06,01,40,1.20
2009,03,06,01,41,1.20
2009,03,06,01,42,1.20
2009,03,06,01,43,1.20
2009,03,06,01,44,1.20
2009,03,06,01,45,1.20
2009,03,06,01,46,1.20
2009,03,06,01,47,1.30
2009,03,06,01,48,1.30
2009,03,06,01,49,1.30
2009,03,06,01,50,1.30
2009,03,06,01,51,1.30
2009,03,06,01,52,1.30
2009,03,06,01,53,1.30
2009,03,06,01,54,1.20
2009,03,06,01,55,1.20
2009,03,06,01,56,1.20
2009,03,06,01,57,1.20
2009,03,06,01,58,1.20
2009,03,06,01,59,1.30
2009,03,06,02,00,1.30
2009,03,06,02,01,1.40
2009,03,06,02,02,1.40
2009,03,06,02,03,1.50
2009,03,06,02,04,1.50
2009,03,06,02,05,1.50
2009,03,06,02,06,1.50
2009,03,06,02,07,1.50
2009,03,06,02,08,1.50
2009,03,06,02,09,1.50
2009,03,06,02,10,1.50
2009,03,06,02,11,1.50
2009,03,06,02,12,1.40
2009,03,06,02,13,1.30
2009,03,06,02,14,1.30
2009,03,06,02,15,1.20
2009,03,06,02,16,1.20
2009,03,06,02,17,1.20
2009,03,06,02,18,1.10
2009,03,06,02,19,1.10
2009,03,06,02,20,1.00
2009,03,06,02,21,1.00
2009,03,06,02,22,0.90
2009,03,06,02,23,0.80
2009,03,06,02,24,0.70
2009,03,06,02,25,0.70
2009,03,06,02,26,0.70
2009,03,06,02,27,0.60
2009,03,06,02,28,0.60
2009,03,06,02,29,0.60
2009,03,06,02,30,0.60
2009,03,06,02,31,0.70
2009,03,06,02,32,0.70
2009,03,06,02,33,0.70
2009,03,06,02,34,0.80
2009,03,06,02,35,0.70
2009,03,06,02,36,0.70
2009,03,06,02,37,0.70
2009,03,06,02,38,0.60
2009,03,06,02,39,0.60
2009,03,06,02,40,0.50
2009,03,06,02,41,0.50
2009,03,06,02,42,0.50
2009,03,06,02,43,0.40
2009,03,06,02,44,0.30
2009,03,06,02,45,0.30
2009,03,06,02,46,0.30
2009,03,06,02,47,0.20
2009,03,06,02,48,0.20
2009,03,06,02,49,0.10
2009,03,06,02,50,0.00
2009,03,06,02,51,-0.10
2009,03,06,02,52,-0.20
2009,03,06,02,53,-0.20
2009,03,06,02,54,-0.30
2009,03,06,02,55,-0.40
2009,03,06,02,56,-0.50
2009,03,06,02,57,-0.50
2009,03,06,02,58,-0.60
2009,03,06,02,59,-0.60
2009,03,06,03,00,-0.70
2009,03,06,03,01,-0.70
2009,03,06,03,02,-0.80
2009,03,06,03,03,-0.80
2009,03,06,03,04,-0.80
2009,03,06,03,05,-0.90
2009,03,06,03,06,-0.90
2009,03,06,03,07,-0.90
2009,03,06,03,08,-0.90
2009,03,06,03,09,-1.00
2009,03,06,03,10,-1.00
2009,03,06,03,11,-1.00
2009,03,06,03,12,-1.10
2009,03,06,03,13,-1.10
2009,03,06,03,14,-1.10
2009,03,06,03,15,-1.20
2009,03,06,03,16,-1.20
2009,03,06,03,17,-1.20
2009,03,06,03,18,-1.20
2009,03,06,03,19,-1.20
2009,03,06,03,20,-1.30
2009,03,06,03,21,-1.30
2009,03,06,03,22,-1.30
2009,03,06,03,23,-1.30
2009,03,06,03,24,-1.40
2009,03,06,03,25,-1.40
2009,03,06,03,26,-1.40
2009,03,06,03,27,-1.40
2009,03,06,03,28,-1.50
2009,03,06,03,29,-1.50
2009,03,06,03,30,-1.50
2009,03,06,03,31,-1.60
2009,03,06,03,32,-1.60
2009,03,06,03,33,-1.60
2009,03,06,03,34,-1.60
2009,03,06,03,35,-1.60
2009,03,06,03,36,-1.60
2009,03,06,03,37,-1.60
2009,03,06,03,38,-1.60
2009,03,06,03,39,-1.70
2009,03,06,03,40,-1.70
2009,03,06,03,41,-1.70
2009,03,06,03,42,-1.70
2009,03,06,03,43,-1.70
2009,03,06,03,44,-1.70
2009,03,06,03,45,-1.80
2009,03,06,03,46,-1.80
2009,03,06,03,47,-1.80
2009,03,06,03,48,-1.80
2009,03,06,03,49,-1.80
2009,03,06,03,50,-1.80
2009,03,06,03,51,-1.90
2009,03,06,03,52,-1.90
2009,03,06,03,53,-1.90
2009,03,06,03,54,-1.90
2009,03,06,03,55,-2.00
2009,03,06,03,56,-2.00
2009,03,06,03,57,-2.00
2009,03,06,03,58,-2.00
2009,03,06,03,59,-2.00
2009,03,06,04,00,-2.00
2009,03,06,04,01,-2.00
2009,03,06,04,02,-2.00
2009,03,06,04,03,-2.00
2009,03,06,04,04,-2.00
2009,03,06,04,05,-2.00
2009,03,06,04,06,-2.00
2009,03,06,04,07,-1.90
2009,03,06,04,08,-1.90
2009,03,06,04,09,-1.90
2009,03,06,04,10,-2.00
2009,03,06,04,11,-2.00
2009,03,06,04,12,-2.00
2009,03,06,04,13,-2.00
2009,03,06,04,14,-2.00
2009,03,06,04,15,-2.00
2009,03,06,04,16,-2.00
2009,03,06,04,17,-2.00
2009,03,06,04,18,-2.00
2009,03,06,04,19,-2.00
2009,03,06,04,20,-2.00
2009,03,06,04,21,-2.00
2009,03,06,04,22,-2.00
2009,03,06,04,23,-2.00
2009,03,06,04,24,-2.00
2009,03,06,04,25,-2.00
2009,03,06,04,26,-2.00
2009,03,06,04,27,-1.90
2009,03,06,04,28,-1.90
2009,03,06,04,29,-1.90
2009,03,06,04,30,-1.90
2009,03,06,04,31,-1.90
2009,03,06,04,32,-1.90
2009,03,06,04,33,-1.90
2009,03,06,04,34,-1.90
2009,03,06,04,35,-2.00
2009,03,06,04,36,-2.00
2009,03,06,04,37,-2.00
2009,03,06,04,38,-2.00
2009,03,06,04,39,-2.00
2009,03,06,04,40,-2.00
2009,03,06,04,41,-1.90
2009,03,06,04,42,-1.90
2009,03,06,04,43,-1.90
2009,03,06,04,44,-1.90
2009,03,06,04,45,-2.00
2009,03,06,04,46,-2.00
2009,03,06,04,47,-2.00
2009,03,06,04,48,-2.00
2009,03,06,04,49,-2.00
2009,03,06,04,50,-2.00
2009,03,06,04,51,-2.10
2009,03,06,04,52,-2.10
2009,03,06,04,53,-2.10
2009,03,06,04,54,-2.10
2009,03,06,04,55,-2.10
2009,03,06,04,56,-2.10
2009,03,06,04,57,-2.10
2009,03,06,04,58,-2.10
2009,03,06,04,59,-2.10
2009,03,06,05,00,-2.10
2009,03,06,05,01,-2.10
2009,03,06,05,02,-2.20
2009,03,06,05,03,-2.20
2009,03,06,05,04,-2.20
2009,03,06,05,05,-2.20
2009,03,06,05,06,-2.30
2009,03,06,05,07,-2.30
2009,03,06,05,08,-2.30
2009,03,06,05,09,-2.30
2009,03,06,05,10,-2.40
2009,03,06,05,11,-2.40
2009,03,06,05,12,-2.50
2009,03,06,05,13,-2.50
2009,03,06,05,14,-2.60
2009,03,06,05,15,-2.60
2009,03,06,05,16,-2.60
2009,03,06,05,17,-2.60
2009,03,06,05,18,-2.70
2009,03,06,05,19,-2.70
2009,03,06,05,20,-2.70
2009,03,06,05,21,-2.70
2009,03,06,05,22,-2.80
2009,03,06,05,23,-2.80
2009,03,06,05,24,-2.80
2009,03,06,05,25,-2.80
2009,03,06,05,26,-2.80
2009,03,06,05,27,-2.80
2009,03,06,05,28,-2.80
2009,03,06,05,29,-2.80
2009,03,06,05,30,-2.80
2009,03,06,05,31,-2.90
2009,03,06,05,32,-2.90
2009,03,06,05,33,-2.90
2009,03,06,05,34,-2.90
2009,03,06,05,35,-2.90
2009,03,06,05,36,-2.90
2009,03,06,05,37,-2.80
2009,03,06,05,38,-2.80
2009,03,06,05,39,-2.80
2009,03,06,05,40,-2.80
2009,03,06,05,41,-2.70
2009,03,06,05,42,-2.70
2009,03,06,05,43,-2.70
2009,03,06,05,44,-2.70
2009,03,06,05,45,-2.70
2009,03,06,05,46,-2.60
2009,03,06,05,47,-2.60
2009,03,06,05,48,-2.60
2009,03,06,05,49,-2.50
2009,03,06,05,50,-2.50
2009,03,06,05,51,-2.50
2009,03,06,05,52,-2.50
2009,03,06,05,53,-2.50
2009,03,06,05,54,-2.50
2009,03,06,05,55,-2.40
2009,03,06,05,56,-2.40
2009,03,06,05,57,-2.40
2009,03,06,05,58,-2.40
2009,03,06,05,59,-2.40
2009,03,06,06,00,-2.40
2009,03,06,06,01,-2.40
2009,03,06,06,02,-2.40
2009,03,06,06,03,-2.40
2009,03,06,06,04,-2.40
2009,03,06,06,05,-2.40
2009,03,06,06,06,-2.40
2009,03,06,06,07,-2.40
2009,03,06,06,08,-2.50
2009,03,06,06,09,-2.40
2009,03,06,06,10,-2.40
2009,03,06,06,11,-2.40
2009,03,06,06,12,-2.40
2009,03,06,06,13,-2.40
2009,03,06,06,14,-2.30
2009,03,06,06,15,-2.30
2009,03,06,06,16,-2.30
2009,03,06,06,17,-2.30
2009,03,06,06,18,-2.30
2009,03,06,06,19,-2.30
2009,03,06,06,20,-2.30
2009,03,06,06,21,-2.30
2009,03,06,06,22,-2.30
2009,03,06,06,23,-2.30
2009,03,06,06,24,-2.30
2009,03,06,06,25,-2.30
2009,03,06,06,26,-2.30
2009,03,06,06,27,-2.30
2009,03,06,06,28,-2.30
2009,03,06,06,29,-2.30
2009,03,06,06,30,-2.30
2009,03,06,06,31,-2.30
2009,03,06,06,32,-2.30
2009,03,06,06,33,-2.30
2009,03,06,06,34,-2.30
2009,03,06,06,35,-2.30
2009,03,06,06,36,-2.30
2009,03,06,06,37,-2.30
2009,03,06,06,38,-2.30
2009,03,06,06,39,-2.30
2009,03,06,06,40,-2.30
2009,03,06,06,41,-2.20
2009,03,06,06,42,-2.20
2009,03,06,06,43,-2.20
2009,03,06,06,44,-2.20
2009,03,06,06,45,-2.20
2009,03,06,06,46,-2.10
2009,03,06,06,47,-2.10
2009,03,06,06,48,-2.10
2009,03,06,06,49,-2.10
2009,03,06,06,50,-2.10
2009,03,06,06,51,-2.00
2009,03,06,06,52,-2.00
2009,03,06,06,53,-2.00
2009,03,06,06,54,-2.00
2009,03,06,06,55,-1.90
2009,03,06,06,56,-1.90
2009,03,06,06,57,-1.90
2009,03,06,06,58,-1.90
2009,03,06,06,59,-1.90
2009,03,06,07,00,-1.90
2009,03,06,07,01,-1.90
2009,03,06,07,02,-1.90
2009,03,06,07,03,-1.90
2009,03,06,07,04,-1.80
2009,03,06,07,05,-1.80
2009,03,06,07,06,-1.80
2009,03,06,07,07,-1.80
2009,03,06,07,08,-1.80
2009,03,06,07,09,-1.80
2009,03,06,07,10,-1.70
2009,03,06,07,11,-1.70
2009,03,06,07,12,-1.60
2009,03,06,07,13,-1.60
2009,03,06,07,14,-1.60
2009,03,06,07,15,-1.60
2009,03,06,07,16,-1.60
2009,03,06,07,17,-1.50
2009,03,06,07,18,-1.50
2009,03,06,07,19,-1.50
2009,03,06,07,20,-1.40
2009,03,06,07,21,-1.40
2009,03,06,07,22,-1.40
2009,03,06,07,23,-1.40
2009,03,06,07,24,-1.30
2009,03,06,07,25,-1.30
2009,03,06,07,26,-1.30
2009,03,06,07,27,-1.30
2009,03,06,07,28,-1.30
2009,03,06,07,29,-1.20
2009,03,06,07,30,-1.20
2009,03,06,07,31,-1.20
2009,03,06,07,32,-1.20
2009,03,06,07,33,-1.10
2009,03,06,07,34,-1.10
2009,03,06,07,35,-1.10
2009,03,06,07,36,-1.00
2009,03,06,07,37,-1.00
2009,03,06,07,38,-0.90
2009,03,06,07,39,-0.90
2009,03,06,07,40,-0.90
2009,03,06,07,41,-0.90
2009,03,06,07,42,-0.80
2009,03,06,07,43,-0.80
2009,03,06,07,44,-0.70
2009,03,06,07,45,-0.70
2009,03,06,07,46,-0.70
2009,03,06,07,47,-0.60
2009,03,06,07,48,-0.50
2009,03,06,07,49,-0.50
2009,03,06,07,50,-0.40
2009,03,06,07,51,-0.40
2009,03,06,07,52,-0.30
2009,03,06,07,53,-0.20
2009,03,06,07,54,-0.10
2009,03,06,07,55,-0.10
2009,03,06,07,56,0.00
2009,03,06,07,57,0.20
2009,03,06,07,58,0.30
2009,03,06,07,59,0.40
2009,03,06,08,00,0.50
2009,03,06,08,01,0.60
2009,03,06,08,02,0.70
2009,03,06,08,03,0.80
2009,03,06,08,04,0.90
2009,03,06,08,05,1.00
2009,03,06,08,06,1.10
2009,03,06,08,07,1.20
2009,03,06,08,08,1.30
2009,03,06,08,09,1.40
2009,03,06,08,10,1.50
2009,03,06,08,11,1.60
2009,03,06,08,12,1.70
2009,03,06,08,13,1.80
2009,03,06,08,14,1.90
2009,03,06,08,15,2.00
2009,03,06,08,16,2.10
2009,03,06,08,17,2.20
2009,03,06,08,18,2.30
2009,03,06,08,19,2.30
2009,03,06,08,20,2.40
2009,03,06,08,21,2.50
2009,03,06,08,22,2.50
2009,03,06,08,23,2.60
2009,03,06,08,24,2.70
2009,03,06,08,25,2.80
2009,03,06,08,26,2.80
2009,03,06,08,27,2.80
2009,03,06,08,28,2.90
2009,03,06,08,29,2.90
2009,03,06,08,30,2.90
2009,03,06,08,31,3.00
2009,03,06,08,32,3.00
2009,03,06,08,33,3.00
2009,03,06,08,34,3.10
2009,03,06,08,35,3.10
2009,03,06,08,36,3.10
2009,03,06,08,37,3.20
2009,03,06,08,38,3.20
2009,03,06,08,39,3.20
2009,03,06,08,40,3.20
2009,03,06,08,41,3.20
2009,03,06,08,42,3.20
2009,03,06,08,43,3.20
2009,03,06,08,44,3.30
2009,03,06,08,45,3.30
2009,03,06,08,46,3.30
2009,03,06,08,47,3.30
2009,03,06,08,48,3.30
2009,03,06,08,49,3.30
2009,03,06,08,50,3.40
2009,03,06,08,51,3.40
2009,03,06,08,52,3.40
2009,03,06,08,53,3.40
2009,03,06,08,54,3.50
2009,03,06,08,55,3.50
2009,03,06,08,56,3.60
2009,03,06,08,57,3.60
2009,03,06,08,58,3.60
2009,03,06,08,59,3.60
2009,03,06,09,00,3.70
2009,03,06,09,01,3.70
2009,03,06,09,02,3.70
2009,03,06,09,03,3.70
2009,03,06,09,04,3.80
2009,03,06,09,05,3.80
2009,03,06,09,06,3.90
2009,03,06,09,07,3.90
2009,03,06,09,08,3.90
2009,03,06,09,09,3.90
2009,03,06,09,10,3.90
2009,03,06,09,11,3.90
2009,03,06,09,12,3.90
2009,03,06,09,13,3.90
2009,03,06,09,14,4.00
2009,03,06,09,15,4.00
2009,03,06,09,16,4.10
2009,03,06,09,17,4.20
2009,03,06,09,18,4.20
2009,03,06,09,19,4.20
2009,03,06,09,20,4.10
2009,03,06,09,21,4.10
2009,03,06,09,22,4.10
2009,03,06,09,23,4.10
2009,03,06,09,24,4.00
2009,03,06,09,25,4.00
2009,03,06,09,26,4.00
2009,03,06,09,27,4.00
2009,03,06,09,28,4.00
2009,03,06,09,29,4.10
2009,03,06,09,30,4.10
2009,03,06,09,31,4.10
2009,03,06,09,32,4.10
2009,03,06,09,33,4.10
2009,03,06,09,34,4.10
2009,03,06,09,35,4.10
2009,03,06,09,36,4.10
2009,03,06,09,37,4.20
2009,03,06,09,38,4.20
2009,03,06,09,39,4.20
2009,03,06,09,40,4.20
2009,03,06,09,41,4.20
2009,03,06,09,42,4.20
2009,03,06,09,43,4.20
2009,03,06,09,44,4.20
2009,03,06,09,45,4.20
2009,03,06,09,46,4.30
2009,03,06,09,47,4.40
2009,03,06,09,48,4.40
2009,03,06,09,49,4.50
2009,03,06,09,50,4.50
2009,03,06,09,51,4.60
2009,03,06,09,52,4.60
2009,03,06,09,53,4.60
2009,03,06,09,54,4.60
2009,03,06,09,55,4.70
2009,03,06,09,56,4.80
2009,03,06,09,57,4.90
2009,03,06,09,58,5.00
2009,03,06,09,59,5.20
2009,03,06,10,00,5.30
2009,03,06,10,01,5.50
2009,03,06,10,02,5.60
2009,03,06,10,03,5.70
2009,03,06,10,04,5.80
2009,03,06,10,05,6.00
2009,03,06,10,06,6.10
2009,03,06,10,07,6.00
2009,03,06,10,08,6.00
2009,03,06,10,09,5.90
2009,03,06,10,10,5.90
2009,03,06,10,11,5.80
2009,03,06,10,12,5.70
2009,03,06,10,13,5.60
2009,03,06,10,14,5.50
2009,03,06,10,15,5.50
2009,03,06,10,16,5.40
2009,03,06,10,17,5.40
2009,03,06,10,18,5.40
2009,03,06,10,19,5.40
2009,03,06,10,20,5.30
2009,03,06,10,21,5.30
2009,03,06,10,22,5.30
2009,03,06,10,23,5.30
2009,03,06,10,24,5.40
2009,03,06,10,25,5.40
2009,03,06,10,26,5.40
2009,03,06,10,27,5.50
2009,03,06,10,28,5.60
2009,03,06,10,29,5.70
2009,03,06,10,30,5.80
2009,03,06,10,31,5.70
2009,03,06,10,32,5.80
2009,03,06,10,33,5.80
2009,03,06,10,34,5.80
2009,03,06,10,35,5.80
2009,03,06,10,36,5.90
2009,03,06,10,37,5.90
2009,03,06,10,38,6.00
2009,03,06,10,39,6.00
2009,03,06,10,40,6.00
2009,03,06,10,41,6.00
2009,03,06,10,42,5.90
2009,03,06,10,43,5.90
2009,03,06,10,44,5.90
2009,03,06,10,45,5.90
2009,03,06,10,46,5.90
2009,03,06,10,47,6.00
2009,03,06,10,48,6.10
2009,03,06,10,49,6.20
2009,03,06,10,50,6.10
2009,03,06,10,51,6.00
2009,03,06,10,52,6.00
2009,03,06,10,53,5.90
2009,03,06,10,54,5.90
2009,03,06,10,55,5.90
2009,03,06,10,56,5.90
2009,03,06,10,57,5.90
2009,03,06,10,58,5.90
2009,03,06,10,59,6.00
2009,03,06,11,00,6.10
2009,03,06,11,01,6.20
2009,03,06,11,02,6.30
2009,03,06,11,03,6.30
2009,03,06,11,04,6.30
2009,03,06,11,05,6.40
2009,03,06,11,06,6.40
2009,03,06,11,07,6.50
2009,03,06,11,08,6.60
2009,03,06,11,09,6.60
2009,03,06,11,10,6.60
2009,03,06,11,11,6.70
2009,03,06,11,12,6.70
2009,03,06,11,13,6.80
2009,03,06,11,14,6.90
2009,03,06,11,15,7.00
2009,03,06,11,16,7.00
2009,03,06,11,17,7.10
2009,03,06,11,18,7.00
2009,03,06,11,19,6.90
2009,03,06,11,20,6.90
2009,03,06,11,21,6.80
2009,03,06,11,22,6.80
2009,03,06,11,23,6.80
2009,03,06,11,24,6.80
2009,03,06,11,25,6.90
2009,03,06,11,26,6.80
2009,03,06,11,27,6.70
2009,03,06,11,28,6.70
2009,03,06,11,29,6.60
2009,03,06,11,30,6.60
2009,03,06,11,31,6.60
2009,03,06,11,32,6.60
2009,03,06,11,33,6.50
2009,03,06,11,34,6.40
2009,03,06,11,35,6.40
2009,03,06,11,36,6.40
2009,03,06,11,37,6.40
2009,03,06,11,38,6.40
2009,03,06,11,39,6.50
2009,03,06,11,40,6.50
2009,03,06,11,41,6.60
2009,03,06,11,42,6.70
2009,03,06,11,43,6.80
2009,03,06,11,44,6.90
2009,03,06,11,45,6.90
2009,03,06,11,46,6.90
2009,03,06,11,47,6.90
2009,03,06,11,48,6.70
2009,03,06,11,49,6.60
2009,03,06,11,50,6.50
2009,03,06,11,51,6.40
2009,03,06,11,52,6.30
2009,03,06,11,53,6.30
2009,03,06,11,54,6.30
2009,03,06,11,55,6.30
2009,03,06,11,56,6.30
2009,03,06,11,57,6.40
2009,03,06,11,58,6.40
2009,03,06,11,59,6.50
2009,03,06,12,00,6.50
2009,03,06,12,01,6.50
2009,03,06,12,02,6.60
2009,03,06,12,03,6.60
2009,03,06,12,04,6.60
2009,03,06,12,05,6.60
2009,03,06,12,06,6.50
2009,03,06,12,07,6.50
2009,03,06,12,08,6.40
2009,03,06,12,09,6.40
2009,03,06,12,10,6.30
2009,03,06,12,11,6.30
2009,03,06,12,12,6.30
2009,03,06,12,13,6.30
2009,03,06,12,14,6.30
2009,03,06,12,15,6.30
2009,03,06,12,16,6.20
2009,03,06,12,17,6.20
2009,03,06,12,18,6.10
2009,03,06,12,19,6.10
2009,03,06,12,20,6.10
2009,03,06,12,21,6.20
2009,03,06,12,22,6.20
2009,03,06,12,23,6.20
2009,03,06,12,24,6.30
2009,03,06,12,25,6.40
2009,03,06,12,26,6.40
2009,03,06,12,27,6.50
2009,03,06,12,28,6.50
2009,03,06,12,29,6.50
2009,03,06,12,30,6.40
2009,03,06,12,31,6.40
2009,03,06,12,32,6.40
2009,03,06,12,33,6.30
2009,03,06,12,34,6.30
2009,03,06,12,35,6.20
2009,03,06,12,36,6.20
2009,03,06,12,37,6.30
2009,03,06,12,38,6.30
2009,03,06,12,39,6.50
2009,03,06,12,40,6.50
2009,03,06,12,41,6.60
2009,03,06,12,42,6.60
2009,03,06,12,43,6.60
2009,03,06,12,44,6.50
2009,03,06,12,45,6.60
2009,03,06,12,46,6.60
2009,03,06,12,47,6.70
2009,03,06,12,48,6.70
2009,03,06,12,49,6.60
2009,03,06,12,50,6.60
2009,03,06,12,51,6.60
2009,03,06,12,52,6.60
2009,03,06,12,53,6.70
2009,03,06,12,54,6.70
2009,03,06,12,55,6.70
2009,03,06,12,56,6.70
2009,03,06,12,57,6.60
2009,03,06,12,58,6.40
2009,03,06,12,59,6.30
2009,03,06,13,00,6.20
2009,03,06,13,01,6.10
2009,03,06,13,02,6.10
2009,03,06,13,03,6.00
2009,03,06,13,04,6.00
2009,03,06,13,05,5.90
2009,03,06,13,06,6.00
2009,03,06,13,07,6.00
2009,03,06,13,08,6.00
2009,03,06,13,09,6.00
2009,03,06,13,10,6.00
2009,03,06,13,11,6.00
2009,03,06,13,12,5.90
2009,03,06,13,13,5.90
2009,03,06,13,14,5.80
2009,03,06,13,15,5.80
2009,03,06,13,16,5.90
2009,03,06,13,17,5.90
2009,03,06,13,18,6.00
2009,03,06,13,19,6.00
2009,03,06,13,20,6.00
2009,03,06,13,21,5.90
2009,03,06,13,22,5.90
2009,03,06,13,23,5.80
2009,03,06,13,24,5.80
2009,03,06,13,25,5.80
2009,03,06,13,26,5.80
2009,03,06,13,27,5.90
2009,03,06,13,28,5.90
2009,03,06,13,29,6.00
2009,03,06,13,30,6.20
2009,03,06,13,31,6.20
2009,03,06,13,32,6.10
2009,03,06,13,33,6.10
2009,03,06,13,34,6.00
2009,03,06,13,35,6.00
2009,03,06,13,36,5.90
2009,03,06,13,37,5.90
2009,03,06,13,38,5.90
2009,03,06,13,39,5.90
2009,03,06,13,40,6.00
2009,03,06,13,41,6.10
2009,03,06,13,42,6.10
2009,03,06,13,43,6.10
2009,03,06,13,44,6.10
2009,03,06,13,45,6.10
2009,03,06,13,46,6.10
2009,03,06,13,47,6.00
2009,03,06,13,48,6.00
2009,03,06,13,49,5.90
2009,03,06,13,50,5.90
2009,03,06,13,51,5.90
2009,03,06,13,52,6.00
2009,03,06,13,53,6.00
2009,03,06,13,54,6.10
2009,03,06,13,55,6.20
2009,03,06,13,56,6.20
2009,03,06,13,57,6.20
2009,03,06,13,58,6.30
2009,03,06,13,59,6.40
2009,03,06,14,00,6.50
2009,03,06,14,01,6.60
2009,03,06,14,02,6.70
2009,03,06,14,03,6.80
2009,03,06,14,04,6.80
2009,03,06,14,05,6.80
2009,03,06,14,06,6.80
2009,03,06,14,07,6.70
2009,03,06,14,08,6.60
2009,03,06,14,09,6.60
2009,03,06,14,10,6.50
2009,03,06,14,11,6.50
2009,03,06,14,12,6.50
2009,03,06,14,13,6.40
2009,03,06,14,14,6.40
2009,03,06,14,15,6.40
2009,03,06,14,16,6.40
2009,03,06,14,17,6.30
2009,03,06,14,18,6.30
2009,03,06,14,19,6.20
2009,03,06,14,20,6.20
2009,03,06,14,21,6.20
2009,03,06,14,22,6.30
2009,03,06,14,23,6.40
2009,03,06,14,24,6.40
2009,03,06,14,25,6.50
2009,03,06,14,26,6.50
2009,03,06,14,27,6.50
2009,03,06,14,28,6.40
2009,03,06,14,29,6.30
2009,03,06,14,30,6.30
2009,03,06,14,31,6.20
2009,03,06,14,32,6.10
2009,03,06,14,33,6.00
2009,03,06,14,34,6.00
2009,03,06,14,35,6.10
2009,03,06,14,36,6.20
2009,03,06,14,37,6.30
2009,03,06,14,38,6.40
2009,03,06,14,39,6.50
2009,03,06,14,40,6.50
2009,03,06,14,41,6.60
2009,03,06,14,42,6.50
2009,03,06,14,43,6.50
2009,03,06,14,44,6.50
2009,03,06,14,45,6.40
2009,03,06,14,46,6.30
2009,03,06,14,47,6.30
2009,03,06,14,48,6.30
2009,03,06,14,49,6.40
2009,03,06,14,50,6.40
2009,03,06,14,51,6.40
2009,03,06,14,52,6.40
2009,03,06,14,53,6.40
2009,03,06,14,54,6.40
2009,03,06,14,55,6.40
2009,03,06,14,56,6.50
2009,03,06,14,57,6.50
2009,03,06,14,58,6.50
2009,03,06,14,59,6.60
2009,03,06,15,00,6.70
2009,03,06,15,01,6.80
2009,03,06,15,02,6.90
2009,03,06,15,03,6.90
2009,03,06,15,04,6.90
2009,03,06,15,05,6.80
2009,03,06,15,06,6.80
2009,03,06,15,07,6.70
2009,03,06,15,08,6.60
2009,03,06,15,09,6.50
2009,03,06,15,10,6.50
2009,03,06,15,11,6.50
2009,03,06,15,12,6.50
2009,03,06,15,13,6.50
2009,03,06,15,14,6.40
2009,03,06,15,15,6.40
2009,03,06,15,16,6.40
2009,03,06,15,17,6.40
2009,03,06,15,18,6.40
2009,03,06,15,19,6.40
2009,03,06,15,20,6.40
2009,03,06,15,21,6.40
2009,03,06,15,22,6.50
2009,03,06,15,23,6.50
2009,03,06,15,24,6.40
2009,03,06,15,25,6.30
2009,03,06,15,26,6.20
2009,03,06,15,27,6.10
2009,03,06,15,28,6.10
2009,03,06,15,29,6.10
2009,03,06,15,30,6.10
2009,03,06,15,31,6.20
2009,03,06,15,32,6.20
2009,03,06,15,33,6.10
2009,03,06,15,34,6.10
2009,03,06,15,35,6.20
2009,03,06,15,36,6.20
2009,03,06,15,37,6.20
2009,03,06,15,38,6.30
2009,03,06,15,39,6.30
2009,03,06,15,40,6.30
2009,03,06,15,41,6.30
2009,03,06,15,42,6.30
2009,03,06,15,43,6.20
2009,03,06,15,44,6.20
2009,03,06,15,45,6.20
2009,03,06,15,46,6.10
2009,03,06,15,47,6.10
2009,03,06,15,48,6.00
2009,03,06,15,49,6.00
2009,03,06,15,50,6.10
2009,03,06,15,51,6.10
2009,03,06,15,52,6.20
2009,03,06,15,53,6.20
2009,03,06,15,54,6.20
2009,03,06,15,55,6.20
2009,03,06,15,56,6.20
2009,03,06,15,57,6.20
2009,03,06,15,58,6.20
2009,03,06,15,59,6.20
2009,03,06,16,00,6.30
2009,03,06,16,01,6.30
2009,03,06,16,02,6.30
2009,03,06,16,03,6.40
2009,03,06,16,04,6.40
2009,03,06,16,05,6.40
2009,03,06,16,06,6.40
2009,03,06,16,07,6.50
2009,03,06,16,08,6.50
2009,03,06,16,09,6.50
2009,03,06,16,10,6.50
2009,03,06,16,11,6.40
2009,03,06,16,12,6.40
2009,03,06,16,13,6.30
2009,03,06,16,14,6.30
2009,03,06,16,15,6.30
2009,03,06,16,16,6.30
2009,03,06,16,17,6.30
2009,03,06,16,18,6.30
2009,03,06,16,19,6.30
2009,03,06,16,20,6.30
2009,03,06,16,21,6.40
2009,03,06,16,22,6.40
2009,03,06,16,23,6.40
2009,03,06,16,24,6.50
2009,03,06,16,25,6.50
2009,03,06,16,26,6.50
2009,03,06,16,27,6.50
2009,03,06,16,28,6.50
2009,03,06,16,29,6.40
2009,03,06,16,30,6.40
2009,03,06,16,31,6.40
2009,03,06,16,32,6.40
2009,03,06,16,33,6.40
2009,03,06,16,34,6.40
2009,03,06,16,35,6.40
2009,03,06,16,36,6.30
2009,03,06,16,37,6.30
2009,03,06,16,38,6.30
2009,03,06,16,39,6.30
2009,03,06,16,40,6.30
2009,03,06,16,41,6.20
2009,03,06,16,42,6.20
2009,03,06,16,43,6.20
2009,03,06,16,44,6.20
2009,03,06,16,45,6.30
2009,03,06,16,46,6.30
2009,03,06,16,47,6.30
2009,03,06,16,48,6.40
2009,03,06,16,49,6.40
2009,03,06,16,50,6.40
2009,03,06,16,51,6.30
2009,03,06,16,52,6.30
2009,03,06,16,53,6.30
2009,03,06,16,54,6.40
2009,03,06,16,55,6.40
2009,03,06,16,56,6.40
2009,03,06,16,57,6.40
2009,03,06,16,58,6.40
2009,03,06,16,59,6.50
2009,03,06,17,00,6.50
2009,03,06,17,01,6.50
2009,03,06,17,02,6.50
2009,03,06,17,03,6.50
2009,03,06,17,04,6.50
2009,03,06,17,05,6.40
2009,03,06,17,06,6.40
2009,03,06,17,07,6.40
2009,03,06,17,08,6.30
2009,03,06,17,09,6.30
2009,03,06,17,10,6.30
2009,03,06,17,11,6.20
2009,03,06,17,12,6.20
2009,03,06,17,13,6.20
2009,03,06,17,14,6.10
2009,03,06,17,15,6.10
2009,03,06,17,16,6.10
2009,03,06,17,17,6.10
2009,03,06,17,18,6.10
2009,03,06,17,19,6.00
2009,03,06,17,20,6.00
2009,03,06,17,21,6.00
2009,03,06,17,22,6.00
2009,03,06,17,23,6.00
2009,03,06,17,24,5.90
2009,03,06,17,25,5.90
2009,03,06,17,26,5.90
2009,03,06,17,27,5.90
2009,03,06,17,28,5.90
2009,03,06,17,29,5.90
2009,03,06,17,30,5.90
2009,03,06,17,31,5.90
2009,03,06,17,32,5.90
2009,03,06,17,33,5.90
2009,03,06,17,34,5.90
2009,03,06,17,35,5.80
2009,03,06,17,36,5.80
2009,03,06,17,37,5.80
2009,03,06,17,38,5.80
2009,03,06,17,39,5.80
2009,03,06,17,40,5.80
2009,03,06,17,41,5.70
2009,03,06,17,42,5.70
2009,03,06,17,43,5.70
2009,03,06,17,44,5.70
2009,03,06,17,45,5.60
2009,03,06,17,46,5.60
2009,03,06,17,47,5.60
2009,03,06,17,48,5.60
2009,03,06,17,49,5.50
2009,03,06,17,50,5.50
2009,03,06,17,51,5.40
2009,03,06,17,52,5.40